Change the Weather History Date:

Friday, July 5, 2013

  Actual Average Record
Temperature  
Mean Temperature 78 °F -  
Max Temperature 86 °F 81 °F 98 °F (1988)
Min Temperature 69 °F 55 °F 38 °F (1972)
Cooling Degree Days 12    
Growing Degree Days 28 (Base 50)    
Moisture  
Dew Point 62 °F    
Average Humidity 59    
Maximum Humidity 73    
Minimum Humidity 43    
Precipitation  
Precipitation 0.00 in - - ()
Sea Level Pressure  
Sea Level Pressure 29.78 in    
Wind  
Wind Speed 9 mph (South)    
Max Wind Speed 13 mph    
Max Gust Speed 17 mph    
Visibility 10 miles    
Events      
Averages and records for this station are not official NWS values.
T = Trace of Precipitation, MM = Missing Value Source: NWS Daily Summary

Daily Weather History Graph

Daily Weather History Graph

Search for Another Location

Airport or City:

Trip Planner

Search our weather history database for the weather conditions in past years. The results will help you decide how hot, cold, wet, or windy it might be!

Date:

Astronomy

Jul. 05, 2013 Rise Set
Actual Time 5:36 AM CDT 9:19 PM CDT
Civil Twilight 4:57 AM CDT 9:58 PM CDT
Nautical Twilight 4:04 AM CDT 10:51 PM CDT
Astronomical Twilight 2:50 AM CDT 12:04 AM CDT
Moon 3:40 AM CDT (7/5) 7:12 PM CDT (7/5)
Length of Visible Light 17h 01m
Length of Day
15h 43m
Waning Crescent, 6% of the Moon is Illuminated
Jul 5
Waning Crescent
Jul 8
New
Jul 15
First Quarter
Jul 22
Full
Jul 29
Last Quarter

Hourly Weather History & Observations

Time (CDT) Temp. Heat Index Dew Point Humidity Pressure Visibility Wind Dir Wind Speed Gust Speed Precip Events Conditions
12:15 AM 77.0 °F - 59.0 °F 54% 29.78 in 10.0 mi South 10.4 mph 16.1 mph N/A   Clear
12:36 AM 77.0 °F - 59.0 °F 54% 29.77 in 10.0 mi South 12.7 mph - N/A   Clear
12:55 AM 77.0 °F - 59.0 °F 54% 29.77 in 10.0 mi South 11.5 mph - N/A   Clear
1:15 AM 75.2 °F - 59.0 °F 57% 29.77 in 10.0 mi South 11.5 mph 17.3 mph N/A   Clear
1:36 AM 75.2 °F - 60.8 °F 61% 29.77 in 10.0 mi South 11.5 mph - N/A   Clear
1:55 AM 75.2 °F - 60.8 °F 61% 29.78 in 10.0 mi South 11.5 mph - N/A   Clear
2:15 AM 75.2 °F - 60.8 °F 61% 29.78 in 10.0 mi South 9.2 mph 17.3 mph N/A   Clear
2:36 AM 77.0 °F - 60.8 °F 57% 29.78 in 10.0 mi SSW 11.5 mph 16.1 mph N/A   Clear
2:55 AM 75.2 °F - 60.8 °F 61% 29.78 in 10.0 mi SSW 12.7 mph - N/A   Clear
3:15 AM 75.2 °F - 60.8 °F 61% 29.78 in 10.0 mi South 10.4 mph - N/A   Clear
3:36 AM 73.4 °F - 60.8 °F 65% 29.78 in 10.0 mi South 10.4 mph 17.3 mph N/A   Clear
3:55 AM 73.4 °F - 60.8 °F 65% 29.78 in 10.0 mi South 9.2 mph 16.1 mph N/A   Clear
4:15 AM 73.4 °F - 60.8 °F 65% 29.78 in 10.0 mi SSW 8.1 mph - N/A   Clear
4:36 AM 73.4 °F - 60.8 °F 65% 29.78 in 10.0 mi South 6.9 mph - N/A   Clear
4:55 AM 71.6 °F - 60.8 °F 69% 29.78 in 10.0 mi South 8.1 mph - N/A   Clear
5:15 AM 71.6 °F - 60.8 °F 69% 29.77 in 10.0 mi South 5.8 mph - N/A   Clear
5:36 AM 69.8 °F - 60.8 °F 73% 29.77 in 10.0 mi South 5.8 mph - N/A   Clear
5:55 AM 69.8 °F - 60.8 °F 73% 29.77 in 10.0 mi South 5.8 mph - N/A   Clear
6:15 AM 69.8 °F - 60.8 °F 73% 29.77 in 10.0 mi South 8.1 mph - N/A   Clear
6:36 AM 71.6 °F - 59.0 °F 64% 29.77 in 10.0 mi South 6.9 mph - N/A   Clear
6:55 AM 71.6 °F - 59.0 °F 64% 29.77 in 10.0 mi South 8.1 mph - N/A   Clear
7:15 AM 71.6 °F - 59.0 °F 64% 29.77 in 10.0 mi South 9.2 mph 17.3 mph N/A   Clear
7:36 AM 71.6 °F - 60.8 °F 69% 29.77 in 10.0 mi South 6.9 mph - N/A   Clear
7:55 AM 73.4 °F - 60.8 °F 65% 29.78 in 10.0 mi SSW 8.1 mph - N/A   Clear
8:15 AM 71.6 °F - 60.8 °F 69% 29.78 in 10.0 mi South 9.2 mph - N/A   Clear
8:36 AM 73.4 °F - 60.8 °F 65% 29.78 in 10.0 mi South 8.1 mph - N/A   Clear
8:55 AM 73.4 °F - 59.0 °F 61% 29.78 in 10.0 mi SSW 10.4 mph - N/A   Clear
9:15 AM 75.2 °F - 60.8 °F 61% 29.78 in 10.0 mi SSW 10.4 mph - N/A   Clear
9:35 AM 75.2 °F - 60.8 °F 61% 29.78 in 10.0 mi South 10.4 mph - N/A   Clear
9:55 AM 75.2 °F - 60.8 °F 61% 29.78 in 10.0 mi South 9.2 mph - N/A   Clear
10:16 AM 77.0 °F - 60.8 °F 57% 29.78 in 10.0 mi SSW 10.4 mph - N/A   Clear
10:35 AM 77.0 °F - 60.8 °F 57% 29.78 in 10.0 mi South 9.2 mph - N/A   Clear
10:55 AM 78.8 °F - 60.8 °F 54% 29.78 in 10.0 mi SSW 6.9 mph - N/A   Clear
11:16 AM 78.8 °F - 62.6 °F 57% 29.78 in 10.0 mi South 6.9 mph - N/A   Clear
11:35 AM 78.8 °F - 62.6 °F 57% 29.79 in 10.0 mi SSW 6.9 mph - N/A   Clear
11:55 AM 78.8 °F - 62.6 °F 57% 29.79 in 10.0 mi SSW 6.9 mph - N/A   Clear
12:16 PM 80.6 °F 81.8 °F 62.6 °F 54% 29.79 in 10.0 mi South 9.2 mph - N/A   Clear
12:35 PM 80.6 °F 81.8 °F 62.6 °F 54% 29.79 in 10.0 mi SSW 6.9 mph - N/A   Clear
12:56 PM 78.8 °F - 62.6 °F 57% 29.79 in 10.0 mi South 8.1 mph - N/A   Clear
1:15 PM 80.6 °F 81.8 °F 62.6 °F 54% 29.79 in 10.0 mi SW 6.9 mph - N/A   Clear
1:35 PM 80.6 °F 81.8 °F 62.6 °F 54% 29.79 in 10.0 mi South 10.4 mph - N/A   Clear
1:56 PM 80.6 °F 81.8 °F 62.6 °F 54% 29.79 in 10.0 mi South 10.4 mph - N/A   Clear
2:15 PM 80.6 °F 81.8 °F 62.6 °F 54% 29.78 in 10.0 mi South 5.8 mph - N/A   Clear
2:35 PM 82.4 °F 82.9 °F 60.8 °F 48% 29.79 in 10.0 mi SW 4.6 mph - N/A   Clear
2:56 PM 82.4 °F 83.4 °F 62.6 °F 51% 29.79 in 10.0 mi South 4.6 mph - N/A   Clear
3:15 PM 82.4 °F 83.4 °F 62.6 °F 51% 29.78 in 10.0 mi SW 5.8 mph - N/A   Clear
3:35 PM 82.4 °F 82.9 °F 60.8 °F 48% 29.78 in 10.0 mi South 4.6 mph - N/A   Clear
3:56 PM 82.4 °F 82.9 °F 60.8 °F 48% 29.78 in 10.0 mi South 4.6 mph - N/A   Clear
4:15 PM 82.4 °F 82.9 °F 60.8 °F 48% 29.78 in 10.0 mi South 5.8 mph - N/A   Clear
4:35 PM 82.4 °F 82.9 °F 60.8 °F 48% 29.78 in 10.0 mi South 4.6 mph - N/A   Clear
4:56 PM 84.2 °F 84.4 °F 60.8 °F 45% 29.78 in 10.0 mi South 6.9 mph - N/A   Clear
5:15 PM 84.2 °F 84.4 °F 60.8 °F 45% 29.78 in 10.0 mi South 6.9 mph - N/A   Clear
5:35 PM 84.2 °F 84.4 °F 60.8 °F 45% 29.78 in 10.0 mi SSW 6.9 mph - N/A   Clear
5:56 PM 86.0 °F 86.1 °F 60.8 °F 43% 29.78 in 10.0 mi SSW 4.6 mph - N/A   Clear
6:15 PM 84.2 °F 84.4 °F 60.8 °F 45% 29.78 in 10.0 mi SW 3.5 mph - N/A   Clear
6:35 PM 84.2 °F 85.0 °F 62.6 °F 48% 29.78 in 10.0 mi SW 6.9 mph - N/A   Clear
6:56 PM 84.2 °F 84.4 °F 60.8 °F 45% 29.78 in 10.0 mi SW 5.8 mph - N/A   Clear
7:15 PM 82.4 °F 83.4 °F 62.6 °F 51% 29.78 in 10.0 mi SSW 5.8 mph - N/A   Clear
7:35 PM 82.4 °F 83.4 °F 62.6 °F 51% 29.78 in 10.0 mi South 6.9 mph - N/A   Clear
7:56 PM 82.4 °F 83.4 °F 62.6 °F 51% 29.78 in 10.0 mi South 5.8 mph - N/A   Clear
8:15 PM 80.6 °F 82.3 °F 64.4 °F 58% 29.78 in 10.0 mi South 4.6 mph - N/A   Clear
8:35 PM 78.8 °F - 64.4 °F 61% 29.78 in 10.0 mi South 3.5 mph - N/A   Clear
8:55 PM 78.8 °F - 64.4 °F 61% 29.78 in 10.0 mi South 3.5 mph - N/A   Clear
9:15 PM 78.8 °F - 64.4 °F 61% 29.78 in 10.0 mi South 3.5 mph - N/A   Clear
9:35 PM 77.0 °F - 64.4 °F 65% 29.78 in 10.0 mi Calm Calm - N/A   Clear
9:56 PM 77.0 °F - 64.4 °F 65% 29.79 in 10.0 mi SSE 3.5 mph - N/A   Clear
10:15 PM 75.2 °F - 64.4 °F 69% 29.80 in 10.0 mi SSE 4.6 mph - N/A   Clear
10:35 PM 75.2 °F - 64.4 °F 69% 29.81 in 10.0 mi SSE 3.5 mph - N/A   Clear
10:56 PM 73.4 °F - 64.4 °F 73% 29.80 in 10.0 mi SSE 3.5 mph - N/A   Clear
11:15 PM 73.4 °F - 64.4 °F 73% 29.80 in 10.0 mi SSE 4.6 mph - N/A   Clear
11:35 PM 73.4 °F - 64.4 °F 73% 29.81 in 10.0 mi SSE 3.5 mph - N/A   Clear
11:56 PM 73.4 °F - 64.4 °F 73% 29.81 in 10.0 mi SSE 3.5 mph - N/A   Clear